Regional Weather Roundup
Issued by NWS Charleston, SC

Current Version | Previous Version | Graphics & Text | Print | Product List | Glossary On
Versions: 1 2 3 4 5 6 7 8 9 10 11 12 13 14 15 16 17 18 19 20 21 22 23 24 25 26 27 28 29 30 31 32 33 34 35 36 37 38 39 40 41 42 43 44 45 46 47 48 49 50
247 ASUS42 KCHS 261511 RWRCHS REGIONAL WEATHER ROUNDUP NATIONAL WEATHER SERVICE CHARLESTON SC 1000 AM EST SUN FEB 26 2017 NOTE: "FAIR" INDICATES FEW OR NO CLOUDS BELOW 12,000 FEET WITH NO SIGNIFICANT WEATHER AND/OR OBSTRUCTIONS TO VISIBILITY. NOT ALL STATIONS ARE QUALITY CONTROLLED. USE DATA WITH CAUTION... ESPECIALLY DEWPOINT OBSERVATIONS. SCZ027-030-031-034>040-042>050-261600- ...SOUTHEAST SOUTH CAROLINA... CITY SKY/WX TMP DP RH WIND PRES REMARKS N CHARLESTON SUNNY 56 25 30 N8 30.22R WATERFRONT PRK N/A 53 31 42 N7 30.21R MOUNT PLEASANT LGT RAIN 55 25 30 N6 30.23R JOHNS ISLAND FAIR 55 28 35 N7 30.22R PINOPOLIS N/A 48 28 46 N7 30.14R MONCKS CORNER FAIR 52 21 30 N5 30.22R SUMMERVILLE FAIR 52 23 32 N5 30.23R BEAUFORT MCAS MOSUNNY 56 28 34 VRB7 30.23R BEAUFORT ARPT FAIR 54 28 37 N8 30.23R HAZE HILTON HEAD IS SUNNY 54 28 37 N12 30.23R WALTERBORO MOSUNNY 52 25 35 N5 30.24R ALLENDALE FAIR 52 23 32 N6 30.22S ...SOUTHERN MIDLANDS AND PEE DEE... CITY SKY/WX TMP DP RH WIND PRES REMARKS GEORGETOWN FAIR 54 21 28 NE6 30.21S KINGSTREE FAIR 50 21 32 NE5 30.22R ORANGEBURG SUNNY 51 20 29 N6 30.22R BARNWELL FAIR 52 25 35 VRB6 30.23R AIKEN FAIR 46 21 36 N5 30.25R MANNING FAIR 50 21 32 MISG 30.23S COLUMBIA SUNNY 50 18 28 N5 30.22R SUMTER MOSUNNY 49 20 30 NE6 30.20R FLORENCE SUNNY 49 19 30 N9 30.22R MYRTLE BEACH SUNNY 52 18 25 N13 30.22R N MYRTLE BEACH SUNNY 52 21 29 N7 30.19R $$ GAZ063-065-086>088-099>101-113>116-118-119-134>141-150-261600- ...SOUTHEAST GEORGIA... CITY SKY/WX TMP DP RH WIND PRES REMARKS SAVANNAH ARPT MOSUNNY 55 23 28 VRB5 30.24R HUNTER AAF MOSUNNY 55 28 36 N5 30.21R FORT STEWART SUNNY 53 24 32 CALM 30.22R STATESBORO MOSUNNY 53 27 37 N7 30.23S SYLVANIA MOSUNNY N/A N/A N/A NE5 30.24S CLAXTON FAIR 52 30 42 N3 30.24S ...CSRA...CENTRAL AND FAR SOUTHEAST GEORGIA... CITY SKY/WX TMP DP RH WIND PRES REMARKS THOMSON SUNNY 50 26 38 NW5 30.27R AUGUSTA-BUSH SUNNY 52 22 30 N6 30.23R AUGUSTA-DANIEL SUNNY 50 19 29 N9 30.23R SWAINSBORO FAIR 52 25 35 NW3 30.24S VIDALIA SUNNY 54 32 43 N7 30.24R EASTMAN FAIR 54 -4 9 NE7 30.26S HAZLEHURST FAIR 53 25 33 N5 30.23S ALMA SUNNY 54 26 34 NW6 30.24R WAYCROSS SUNNY 56 30 36 N8 30.25R JESUP FAIR 55 23 28 N7 30.25R BAXLEY FAIR 52 30 43 N5 30.24R BRUNSWICK SUNNY 55 32 41 N5 30.24R SAINT SIMONS SUNNY 57 25 29 N12 30.23R $$ SCZ027-028-034-036>038-045-046-048>050-GAZ119-141-261600- ...LAKE AND SUPPLEMENTAL COASTAL OBSERVATIONS... STATION/POSITION TIME TEMP WIND PRES WAVE SWELL AIR SEA DIR/SP/G HT/PER HT/PER/DIR (UTC) (F) (DEG/KT/KT) (MB) (FT/S) (FT/S/D) WINYAH BAY NOT AVBL LAKE MURRAY 1420 47 350/ 2/ 8 1022.7 ACE BASIN NERRS NOT AVBL FORT PULASKI 1448 52 63 10/ 7/ 9 1023.7R SAPELO ISLAND 1400 53 350/ 12 1023.0 $$ ANZ835-935-AMZ111-154-330-350-352-354-370-450-454-472-261600- ...C-MAN AND BUOY OBSERVATIONS... STATION/POSITION TIME TEMP WIND PRES WAVE SWELL AIR SEA DIR/SP/G HT/PER HT/PER/DIR (UTC) (F) (DEG/KT/KT) (MB) (FT/S) (FT/S/D) BUOY 41004 1350 57 69 350/ 12/ 16 1021.1 5/ 5 3/100/10 BUOY 41008 1350 54 62 350/ 16/ 19 1021.9 4/ 4 2/130/ 9 FOLLY BEACH CMAN 1400 53 340/ 8/ 9 1023.0R CAPERS NEARSHORE NOT AVBL FRIPP NEARSHORE 1408 52 62 330/ 12/ 16 1022.5R STATION/POSITION TIME TEMP WIND PRES WAVE SWELL AIR SEA DIR/SP/G HT/PER HT/PER/DIR (UTC) (F) (DEG/KT/KT) (MB) (FT/S) (FT/S/D) 5E ST. MARYS GA 1430 64 N/A 4/10 2/ 90/12 FRYING PAN BUOY 1450 53 70 340/ 14/ 17 1022.0R 5/ 9 3/130/ 9 BUOY 41025 1450 51 72 340/ 16/ 21 1020.0R 6/ 9 3/110/ 9 CAPE LOOKOUT NC 1400 48 340/ 13/ 15 1020.0R BUOY 41002 1450 70 71 310/ 16/ 17 1018.6R 8/ 8 5/330/ 8 BUOY 41010 NOT AVBL ST AUGUSTINE FL 1500 58 65 360/ 15/ 16 1024.2R $$

USA.gov is the U.S. government's official web portal to all federal, state and local government web resources and services.